Weather Roundup
Issued by NWS

Home | Current Version | Previous Version | Graphics & Text | Print | Product List | Glossary Off
Versions: 1 2 3 4 5 6 7 8 9 10 11 12 13 14 15 16 17 18 19 20 21 22 23 24 25 26 27 28 29 30 31 32 33 34 35 36 37 38 39 40 41 42 43 44 45 46 47 48 49 50

737
NZUS93 KARX 231310
HRRWXR

CURRENT HOURLY OBSERVATIONS ACROSS
MUCH OF THE UPPER MISSISSIPPI VALLEY
NATIONAL WEATHER SERVICE LA CROSSE WI
800 AM CDT SUN APR 23 2017


...SOUTHEAST MINNESOTA...


CITY           SKY/WX    TMP DP  RH WIND       PRES   REMARKS
ROCHESTER      SUNNY     50  39  66 SW7       30.11S
ROCHESTER/MAYO FAIR      52  35  52 SW7       30.11S
WINONA         SUNNY     54  41  62 CALM      30.11R
AUSTIN         SUNNY     46  39  76 CALM      30.11R
ALBERT LEA     SUNNY     52  34  50 SW5       30.11R
DODGE CENTER   SUNNY     48  39  71 SW7       30.11R
PRESTON        SUNNY     50  35  56 W7        30.13R
OWATONNA       SUNNY     50  37  62 SW6       30.10S
FARIBAULT      SUNNY     50  39  66 CALM      30.11R
$$

...ELSEWHERE IN MINNESOTA...


CITY           SKY/WX    TMP DP  RH WIND       PRES   REMARKS
MINNEAPOLIS    PTSUNNY   51  39  63 N10       30.11R
INTNL FALLS    PTSUNNY   29  18  63 NE12      30.24S WCI  19
DULUTH         LGT SNOW  33  32  96 NE12      30.18R VSB 3/4 WCI  24
RED WING       SUNNY     54  39  58 CALM      30.09S
REDWOOD FALLS  SUNNY     44  38  79 VRB3      30.10R
MANKATO        SUNNY     51  37  58 W6        30.11R
WORTHINGTON    SUNNY     52  32  46 SW16      30.09F
FAIRMONT       SUNNY     51  37  58 SW8       30.11S
$$

...SOUTHWEST WISCONSIN...


CITY           SKY/WX    TMP DP  RH WIND       PRES   REMARKS
LA CROSSE      SUNNY     52  41  66 S6        30.10S
PRAIRIE DU CHI SUNNY     46  39  78 CALM      30.14S
BOSCOBEL       SUNNY     45  39  79 SW3       30.14S
LONE ROCK      SUNNY     43  39  86 CALM      30.14S
PLATTEVILLE    SUNNY     48  37  64 SW5       30.15S
FORT MC COY    SUNNY     42  37  83 CALM      30.11S
CAMP DOUGLAS   MOSUNNY   55  34  44 W12       30.09R
MAUSTON-NEW LI SUNNY     56  33  42 W12       30.09R
VIROQUA        FAIR      50  33  53 SW7       30.11S
WIS DELLS      SUNNY     52  34  50 SW5       30.11S
$$

...ELSEWHERE IN WISCONSIN...


CITY           SKY/WX    TMP DP  RH WIND       PRES   REMARKS
MILWAUKEE      SUNNY     54  26  34 W7        30.13S
MADISON        MOSUNNY   50  38  63 S5        30.12F
GREEN BAY      SUNNY     51  39  63 S5        30.07R
EAU CLAIRE     SUNNY     50  39  66 N5        30.09R
BLACK RVR FLS  FAIR      48  36  62 S3        30.08S
MEDFORD        CLOUDY    46  37  69 NE6       30.08R
WAUSAU         MOSUNNY   50  36  58 NW3       30.06R
WIS RAPIDS     SUNNY     51  35  54 SW6       30.09R
MARSHFIELD     SUNNY     50  36  58 W7        30.07R
RICE LAKE      CLOUDY    46  38  75 NE13G21   30.13R
$$

...NORTHEAST IOWA...


CITY           SKY/WX    TMP DP  RH WIND       PRES   REMARKS
WATERLOO       SUNNY     46  39  76 CALM      30.14S
DUBUQUE        MOSUNNY   47  38  71 W7        30.15S
DECORAH        SUNNY     52  34  50 W6        30.12R
MASON CITY     SUNNY     51  37  58 SW7       30.14R
CHARLES CITY   SUNNY     50  36  57 SW3       30.13S
OELWEIN        SUNNY     46  39  76 S3        30.15S
$$

...ELSEWHERE IN IOWA...


CITY           SKY/WX    TMP DP  RH WIND       PRES   REMARKS
DES MOINES     SUNNY     49  33  54 CALM      30.17R
IOWA CITY      SUNNY     45  37  73 CALM      30.19R
FORT DODGE     SUNNY     45  37  76 S3        30.14R
MARSHALLTOWN   SUNNY     44  37  76 CALM      30.15S
CEDAR RAPIDS   SUNNY     48  37  65 SW3       30.15S
$$

...NORTHERN ILLINOIS...


CITY           SKY/WX    TMP DP  RH WIND       PRES   REMARKS
CHICAGO-OHARE  MOSUNNY   50  28  42 W3        30.15R
CHICAGO-MIDWAY MOSUNNY   49  35  58 CALM      30.16R
MOLINE         SUNNY     45  40  82 CALM      30.17R
ROCKFORD       SUNNY     44  37  76 CALM      30.18S
PEORIA         SUNNY     48  34  58 NE5       30.16S
$$

NOTE: "FAIR" INDICATES FEW OR NO CLOUDS BELOW 12,000 FEET WITH NO
SIGNIFICANT WEATHER AND/OR OBSTRUCTIONS TO VISIBILITY. WIND
SPEEDS ARE IN MILES-PER-HOUR.




USA.gov is the U.S. government's official web portal to all federal, state and local government web resources and services.